This demonstration page uses our WeatherBlox Daily Observations layout. Learn more.

Left ArrowRight Arrow

Hourly Observations for September 2, 2015

Temp ( °F °C ) Dew Point ( °F °C ) Humidity (%) Winds ( mph kmh ) Pressure ( in mb ) Visibility ( mi km ) Precip ( " mm )
12:51 am 00:51 Clear 73 22.8 68 20 84 84 NE 6 9 29.89 1012 10 16.0934 0 0
1:51 am 01:51 Clear 73 22.8 67 19.4 81 81 Calm 29.88 1012 10 16.0934 0 0
2:51 am 02:51 Clear 73 22.8 68 20 84 84 Calm 29.88 1012 10 16.0934 0 0
3:51 am 03:51 Clear 72 22.2 69 20.6 91 91 W 3 6 29.88 1012 10 16.0934 0 0
4:51 am 04:51 Clear 71 21.7 68 20 90 90 Calm 29.9 1012 10 16.0934 0 0
5:51 am 05:51 Clear 72 22.2 67 19.4 84 84 Calm 29.91 1013 10 16.0934 0 0
6:51 am 06:51 Sunny 73 22.8 67 19.4 81 81 Calm 29.93 1013 10 16.0934 0 0
7:51 am 07:51 Sunny 74 23.3 68 20 82 82 Calm 29.94 1014 10 16.0934 0 0
8:51 am 08:51 Sunny 78 25.6 65 18.3 64 64 NNW 6 9 29.92 1013 10 16.0934 0 0
9:51 am 09:51 Sunny 80 26.7 66 18.9 62 62 WSW 8 13 29.93 1014 10 16.0934 0 0
10:51 am 10:51 Sunny 83 28.3 64 17.8 53 53 W 7 11 29.92 1013 10 16.0934 0 0
11:51 am 11:51 Sunny 88 31.1 62 16.7 42 42 VRB 7 11 29.88 1012 10 16.0934 0 0
12:51 pm 12:51 Sunny 90 32.2 60 15.6 37 37 NW 8 13 29.85 1011 10 16.0934 0 0
1:51 pm 13:51 Sunny 91 32.8 58 14.4 33 33 W 12 19 29.83 1010 10 16.0934 0 0
2:51 pm 14:51 Sunny 87 30.6 60 15.6 40 40 W 13 20 29.82 1010 10 16.0934 0 0
3:51 pm 15:51 Mostly Cloudy with Light Rain 85 29.4 62 16.7 46 46 WNW 8 13 29.83 1010 10 16.0934 0 0.0254
4:03 pm 16:03 Mostly Cloudy with Nearby Thunderstorms 85 29.4 62 16.7 46 46 W 6 9 29.77 1008 10 16.0934 0 0.0254
4:18 pm 16:18 Mostly Cloudy with Light Rain 76 24.4 63 17.2 64 64 S 29 46 29.85 1011 10 16.0934 0 0.0254
4:30 pm 16:30 Mostly Cloudy with Light Rain 72 22.2 66 18.9 82 82 S 21 33 29.88 1012 8 12.87472 0 0.0254
4:51 pm 16:51 Mostly Cloudy 73 22.8 63 17.2 71 71 SE 9 15 29.91 1013 10 16.0934 0 0.0254
5:01 pm 17:01 Partly Cloudy with Nearby Thunderstorms 73 22.8 62 16.7 69 69 E 7 11 29.85 1011 10 16.0934 0 0
5:16 pm 17:16 Partly Cloudy with Thunderstorms 74 23.3 63 17.2 69 69 NNE 7 11 29.85 1011 10 16.0934 0 0
5:37 pm 17:37 Sunny 75 23.9 61 16.1 62 62 E 6 9 29.85 1011 10 16.0934 0 0
5:51 pm 17:51 Sunny 77 25 58 14.4 52 52 E 12 19 29.87 1012 10 16.0934 0 0
6:51 pm 18:51 Clear 75 23.9 60 15.6 60 60 S 8 13 29.89 1012 10 16.0934 0 0
7:51 pm 19:51 Clear 75 23.9 59 15 58 58 SE 10 17 29.91 1013 10 16.0934 0 0
8:51 pm 20:51 Mostly Clear 74 23.3 61 16.1 64 64 ESE 7 11 29.91 1013 10 16.0934 0 0
9:51 pm 21:51 Partly Cloudy 73 22.8 62 16.7 69 69 SSE 9 15 29.91 1013 10 16.0934 0 0
10:51 pm 22:51 Clear 74 23.3 60 15.6 62 62 SE 9 15 29.91 1013 10 16.0934 0 0
11:51 pm 23:51 Clear 72 22.2 61 16.1 68 68 SE 7 11 29.89 1012 10 16.0934 0 0

Powered by AerisWeather